Hermosillo, Mexico

12:15 PM MST on May 29, 2017 (GMT -0700)
Gen Ignacio Pesqueira Garcia

Weather History for MMHO - October, 2013

Change the Weather History Date:

Saturday, October 19, 2013

  Actual Average Record
Temperature  
Mean Temperature 74 °F -  
Max Temperature 93 °F 85 °F 102 °F (2003)
Min Temperature 55 °F 56 °F 55 °F (2013)
Cooling Degree Days 9    
Growing Degree Days 24 (Base 50)    
Moisture  
Dew Point 39 °F    
Average Humidity 33    
Maximum Humidity 63    
Minimum Humidity 10    
Precipitation  
Precipitation 0.00 in - - ()
Sea Level Pressure  
Sea Level Pressure 29.92 in    
Wind  
Wind Speed 1 mph ()    
Max Wind Speed 7 mph    
Max Gust Speed -    
Visibility 10.8 miles    
Events      
Averages and records for this station are not official NWS values.
T = Trace of Precipitation, MM = Missing Value Source: Averaged Metar Reports

Daily Weather History Graph

Daily Weather History Graph

Search for Another Location

Airport or City:

Trip Planner

Search our weather history database for the weather conditions in past years. The results will help you decide how hot, cold, wet, or windy it might be!

Date:

Astronomy

Oct. 19, 2013 Rise Set
Actual Time 7:28 AM MDT 6:49 PM MDT
Civil Twilight 7:04 AM MDT 7:13 PM MDT
Nautical Twilight 6:36 AM MDT 7:41 PM MDT
Astronomical Twilight 6:08 AM MDT 8:08 PM MDT
Moon 7:25 PM MDT (10/19) 8:04 AM MDT (10/19)
Length of Visible Light 12h 09m
Length of Day
11h 21m
Full, 99% of the Moon is Illuminated
Oct 19
Full
Oct 26
Last Quarter
Nov 3
New
Nov 9
First Quarter
Nov 17
Full

Hourly Weather History & Observations

Time (MDT) Temp. Dew Point Humidity Pressure Visibility Wind Dir Wind Speed Gust Speed Precip Events Conditions
12:40 AM 68.0 °F 44.6 °F 43% 29.93 in 10.0 mi Calm Calm - N/A   Clear
1:42 AM 62.6 °F 44.6 °F 52% 29.93 in 10.0 mi Calm Calm - N/A   Clear
2:40 AM 62.6 °F 46.4 °F 55% 29.88 in 10.0 mi Calm Calm - N/A   Clear
3:41 AM 62.6 °F 46.4 °F 55% 29.91 in 10.0 mi Calm Calm - N/A   Clear
5:45 AM 57.2 °F 42.8 °F 59% 29.89 in 10.0 mi Calm Calm - N/A   Clear
6:42 AM 57.2 °F 37.4 °F 48% 29.93 in 10.0 mi Calm Calm - N/A   Clear
7:42 AM 55.4 °F 42.8 °F 63% 29.94 in 10.0 mi Calm Calm - N/A   Clear
8:40 AM 57 °F 42 °F 46% 29.95 in 7 mi NE 2.2 mph - -  
8:45 AM 64.4 °F 39.2 °F 40% 29.96 in 10.0 mi Calm Calm - N/A   Clear
9:41 AM 69.8 °F 37.4 °F 31% 29.98 in 10.0 mi Calm Calm - N/A   Clear
10:50 AM 75.2 °F 37.4 °F 25% 29.98 in 10.0 mi Calm Calm - N/A   Clear
11:48 AM 82.4 °F 35.6 °F 19% 29.97 in 10.0 mi Calm Calm - N/A   Clear
1:09 PM 87.8 °F 33.8 °F 15% 29.95 in 10.0 mi Calm Calm - N/A   Clear
1:52 PM 89.6 °F 33.8 °F 14% 29.93 in 10.0 mi SSW 4.6 mph - N/A   Clear
2:41 PM 91.4 °F 30.2 °F 11% 29.87 in 10.0 mi SSW 4.6 mph - N/A   Clear
3:43 PM 91.4 °F 30.2 °F 11% 29.90 in 15.0 mi Calm Calm - N/A   Clear
4:45 PM 93.2 °F 30.2 °F 11% 29.89 in 15.0 mi West 5.8 mph - N/A   Clear
5:41 PM 91.4 °F 28.4 °F 10% 29.87 in 15.0 mi WSW 5.8 mph - N/A   Clear
6:42 PM 86.0 °F 28.4 °F 12% 29.88 in 15.0 mi WSW 5.8 mph - N/A   Clear
7:42 PM 80.6 °F 30.2 °F 16% 29.90 in 12.0 mi WSW 6.9 mph - N/A   Clear
8:40 PM 77.0 °F 44.6 °F 32% 29.90 in 10.0 mi South 5.8 mph - N/A   Clear
9:41 PM 73.4 °F 46.4 °F 38% 29.92 in 10.0 mi WSW 3.5 mph - N/A   Clear
10:48 PM 68.0 °F 46.4 °F 46% 29.93 in 10.0 mi Calm Calm - N/A   Clear
11:52 PM 68.0 °F 46.4 °F 46% 29.90 in 10.0 mi Calm Calm - N/A   Clear